Theta_e
289 289 289 288 288 288 287 286 286 285 284 283 282 282 282 281 281 281 281 281 280 280 281 280 280 281 280 281 281 282 281 281 278 280 282 283 283 283 284 285 286 285 285
289 289 288 288 287 287 286 285 285 283 282 281 281 280 280 279 279 279 278 278 278 278 278 278 278 279 278 278 278 278 278 279 277 275 278 279 280 282 282 282 283 285 284
288 288 287 287 286 286 285 283 283 281 281 280 279 278 278 278 277 277 277 277 277 277 277 277 277 277 276 277 276 276 276 277 276 275 274 276 277 279 279 280 281 282 283
288 287 286 286 286 285 283 282 280 280 279 278 278 277 276 276 276 276 276 276 276 277 277 277 277 276 275 275 275 274 275 274 274 273 273 274 275 276 277 276 277 280 279
287 286 286 286 285 283 281 279 278 278 277 276 275 276 275 275 275 275 275 275 275 275 276 276 276 276 276 276 275 274 274 273 272 272 271 272 272 273 273 274 273 275 276
286 285 285 283 281 280 278 277 276 275 275 275 274 274 273 274 275 276 275 274 274 274 273 274 274 275 274 276 276 276 276 273 271 271 270 270 271 272 273 273 273 272 270
285 284 282 281 278 277 276 275 275 274 274 273 273 273 272 273 274 275 275 274 273 273 273 273 273 273 273 273 274 275 275 275 276 274 271 272 271 273 273 272 272 272 272
283 281 280 278 276 275 274 274 273 273 272 272 272 271 271 272 274 274 274 273 272 272 272 272 272 272 273 273 273 273 273 273 274 274 274 274 274 275 275 275 274 274 275
280 279 277 276 275 274 273 272 272 272 271 271 271 270 269 269 272 273 273 272 272 272 272 273 273 273 275 277 275 274 274 274 277 279 279 280 280 281 280 277 275 273 271
279 278 277 275 273 271 272 271 272 270 270 270 270 270 269 267 270 271 272 272 271 272 273 274 275 274 277 278 276 275 273 274 275 276 276 278 279 278 280 278 276 272 271
279 276 275 273 271 271 270 270 269 268 269 267 267 268 268 268 268 271 273 273 272 272 272 272 274 276 277 278 278 274 273 275 274 273 273 273 274 275 276 277 278 276 274
276 274 272 270 271 269 267 267 267 267 266 266 267 267 270 270 271 272 274 275 275 273 272 274 274 276 276 275 274 275 275 274 270 269 269 270 271 272 273 274 275 275 275
272 270 268 268 269 268 266 267 267 267 267 267 268 268 268 270 271 273 273 274 275 274 274 275 275 274 273 271 272 273 271 268 268 267 266 267 269 271 272 272 273 273 274
269 268 267 266 267 266 267 268 268 268 268 267 267 267 268 270 271 271 271 272 274 274 274 272 272 271 271 271 268 269 268 268 267 266 267 268 269 269 268 270 269 270 269
269 268 268 268 267 267 267 269 268 269 269 267 267 268 269 268 270 272 273 272 273 274 272 268 266 266 266 266 266 267 267 267 266 267 266 266 267 268 268 270 270 270 269
269 268 269 269 267 268 268 267 270 271 271 272 273 272 271 272 273 273 274 274 275 274 268 265 264 265 265 265 265 265 266 266 266 266 266 267 267 267 268 269 270 269 268
271 269 269 268 268 267 266 266 266 268 269 270 271 272 272 271 272 273 273 274 273 271 264 264 264 264 264 264 264 265 264 266 266 266 266 267 267 268 267 267 268 268 268
270 267 269 267 267 267 266 266 265 264 264 265 268 268 268 269 271 271 272 271 263 264 263 263 262 263 263 263 263 264 264 265 265 266 266 266 268 268 267 267 267 267 267
267 265 266 267 266 265 265 264 264 263 262 262 263 265 266 267 268 269 270 262 261 261 262 262 262 262 263 263 263 263 264 264 265 265 266 267 268 267 266 266 267 267 268
264 265 264 264 263 262 262 262 262 261 261 261 261 262 263 260 261 263 263 261 261 261 261 261 261 262 262 262 262 263 263 264 264 265 266 268 267 267 266 266 267 267 267
264 262 262 263 262 262 262 261 261 261 261 260 261 262 265 260 262 263 260 260 260 260 260 260 260 260 261 262 262 262 262 263 264 265 266 267 267 266 267 267 267 267 267
263 262 261 261 262 261 261 260 260 260 259 259 260 261 265 262 260 260 259 259 259 260 260 260 259 260 260 260 261 261 261 262 263 264 266 266 266 266 266 266 266 265 266
262 262 261 261 260 260 259 259 259 259 259 259 259 259 259 259 259 259 258 258 258 259 259 259 258 258 259 259 260 261 261 262 263 264 266 265 265 265 265 265 265 264 265
261 261 260 260 260 260 259 259 259 259 258 258 259 259 259 259 258 258 257 257 257 258 258 258 258 257 257 257 258 259 260 261 263 263 266 264 264 264 264 264 264 264 265
260 260 260 259 259 259 259 258 258 257 258 258 258 258 258 258 258 257 257 256 256 256 255 256 256 256 255 255 256 256 257 260 262 264 266 260 259 260 262 262 263 264 264
259 258 258 258 258 257 257 256 256 257 257 257 257 257 257 257 257 256 256 255 255 255 254 255 255 254 254 255 255 257 261 263 262 265 268 263 258 259 257 260 261 262 262
Wind_Speed
11 10 10 9 8 8 7 7 7 7 6 5 4 4 5 6 6 6 7 7 8 8 8 9 10 10 8 8 8 9 10 9 13 14 11 11 14 15 15 13 13 13 13
11 11 10 10 8 7 8 8 6 6 5 3 4 4 5 5 6 7 8 8 9 9 9 10 11 9 11 10 8 11 10 11 11 20 14 12 13 13 14 17 13 11 13
11 11 10 9 8 8 7 7 6 5 4 4 4 4 5 6 7 7 8 9 10 10 10 11 11 11 11 9 11 11 10 10 10 12 17 12 12 12 13 13 13 13 12
11 11 10 9 8 8 8 7 5 4 4 4 4 3 3 5 7 7 9 10 11 10 11 11 11 12 12 12 11 12 11 11 11 11 13 14 11 12 11 12 11 9 11
12 10 10 9 9 8 7 6 5 3 4 3 2 3 4 5 5 8 10 11 12 12 12 12 11 12 20 18 11 12 13 11 11 12 14 14 11 11 12 11 13 12 12
12 11 9 9 7 8 7 6 5 4 3 2 2 3 5 5 9 11 11 11 13 13 12 12 12 14 15 21 22 24 20 14 14 11 13 15 17 13 12 11 11 11 14
11 10 11 10 8 7 7 5 5 4 2 1 2 3 6 7 10 12 14 10 11 12 12 12 12 10 13 13 17 23 21 24 25 18 17 15 17 15 15 14 14 13 14
12 11 10 9 8 8 7 6 5 4 2 1 3 4 6 7 11 12 14 11 10 12 12 12 13 13 13 16 16 15 16 16 17 14 17 18 17 17 17 16 16 17 15
13 12 11 10 9 8 6 7 5 4 2 2 3 4 6 7 11 12 12 9 9 11 11 11 13 15 20 25 18 17 16 16 20 30 31 33 33 32 27 14 11 12 14
14 12 11 9 8 8 7 6 5 3 3 3 5 5 7 6 10 11 10 7 8 9 10 12 17 17 25 27 18 16 16 13 14 14 13 16 18 18 27 18 12 13 13
12 12 11 9 8 7 7 6 5 4 3 4 5 5 6 7 7 10 12 7 7 8 9 9 9 22 26 29 30 16 18 21 19 14 12 11 12 12 10 10 11 11 12
12 11 10 9 7 6 6 5 4 4 5 5 5 5 4 4 7 10 12 13 15 10 10 9 9 25 28 29 23 25 27 22 10 10 10 10 10 10 10 10 12 13 13
11 10 10 8 7 7 6 6 5 5 5 4 4 4 4 4 4 11 11 15 17 12 9 15 24 24 23 16 21 23 16 9 9 9 9 10 10 10 13 12 12 14 15
11 10 8 8 8 6 5 5 5 5 5 5 5 5 4 5 5 4 5 8 11 11 10 7 14 16 17 16 10 12 8 8 9 10 10 10 11 10 10 10 11 11 11
10 9 8 7 7 7 7 5 6 5 6 4 4 5 5 5 5 11 12 8 7 10 10 6 7 7 8 8 8 9 9 9 9 9 10 10 11 11 11 10 11 11 11
10 8 7 7 7 6 5 5 11 12 11 13 16 11 6 12 15 16 17 18 18 17 6 5 6 7 8 9 9 10 9 10 9 10 10 10 11 11 12 11 11 11 11
9 9 7 6 6 6 6 5 5 7 11 12 13 14 14 12 15 16 17 18 15 13 4 5 6 6 7 8 9 9 11 11 12 10 10 11 12 11 13 11 11 11 12
7 7 6 6 6 6 5 5 4 4 5 4 8 10 11 13 14 14 17 12 5 5 4 5 6 6 7 8 9 9 10 10 10 11 11 12 11 11 11 11 11 12 12
7 6 5 4 4 4 4 4 4 4 5 5 4 7 7 10 12 15 13 2 5 5 5 5 6 6 7 8 8 9 10 10 11 11 10 11 11 11 11 11 12 16 16
5 6 6 5 4 4 4 4 4 5 5 5 5 5 3 2 4 5 2 4 5 5 5 6 6 6 7 8 8 9 9 10 10 10 11 10 11 10 11 12 11 12 12
5 6 6 4 4 5 4 5 5 4 5 5 5 5 10 6 7 5 3 5 6 5 5 6 6 6 7 7 8 8 9 10 10 10 11 10 11 11 11 11 11 11 11
5 5 4 4 3 4 4 4 4 5 5 6 6 6 14 5 5 6 6 6 6 6 5 6 6 7 7 7 8 8 9 10 10 10 11 10 10 10 10 11 11 11 11
5 5 4 4 3 4 4 5 5 5 6 6 6 6 6 6 6 6 6 6 5 6 5 6 6 7 7 7 7 8 9 9 10 10 11 9 9 10 10 10 11 11 11
4 4 3 3 3 4 4 5 5 6 7 6 7 7 7 7 7 7 6 5 6 6 5 6 6 8 8 8 7 7 8 9 9 11 13 7 8 9 9 9 10 12 10
3 2 2 3 4 4 5 5 6 6 7 7 7 7 7 7 7 7 7 5 5 6 7 7 6 8 9 10 11 13 14 17 13 14 10 5 5 8 7 7 9 9 11
2 2 2 3 4 4 5 5 6 6 7 7 7 7 7 7 7 7 6 6 6 7 7 6 8 11 11 10 11 13 15 16 16 16 10 5 3 5 3 6 9 7 9
Wind_Direction
144 137 135 133 129 115 111 100 96 93 83 78 60 41 20 11 3 347 340 330 330 322 320 316 314 311 305 306 305 298 291 287 286 292 291 294 290 295 298 296 296 298 293
151 147 144 139 143 138 126 121 123 112 105 92 66 39 17 4 351 340 331 326 322 319 319 313 309 313 308 306 300 297 298 299 294 294 297 300 297 299 291 289 291 288 290
156 154 150 156 159 149 141 135 129 120 115 97 62 33 4 351 339 330 325 325 321 317 315 310 311 308 302 303 301 300 302 303 302 295 297 302 301 301 299 295 293 292 286
165 163 166 167 160 155 144 139 126 126 123 81 59 26 350 332 324 322 327 321 318 311 308 305 305 303 302 307 305 300 298 298 293 288 290 300 304 306 296 298 298 314 309
168 170 167 160 156 145 145 138 126 129 103 86 40 1 335 321 320 326 319 315 312 309 308 305 302 303 303 297 295 294 296 296 295 292 290 293 299 304 311 304 293 297 297
170 171 159 153 150 148 148 139 146 146 128 108 21 338 321 308 310 311 310 309 310 306 303 304 306 306 300 304 301 298 295 293 289 290 292 288 291 294 296 294 296 298 296
166 156 153 155 158 154 152 149 172 161 152 111 314 310 303 300 303 308 311 305 301 299 303 305 304 303 305 297 297 297 296 288 283 284 284 283 287 285 285 284 281 280 280
153 152 153 151 156 164 153 179 173 175 172 224 290 297 288 292 299 305 307 303 302 301 302 302 298 296 292 297 291 284 277 273 271 269 266 270 272 275 272 272 273 271 270
157 159 160 162 167 155 170 184 174 177 183 242 256 266 272 281 294 302 312 309 302 302 299 292 291 290 290 292 288 287 283 274 269 272 275 278 281 282 282 283 283 288 286
163 161 158 159 151 153 178 173 163 171 208 242 256 264 268 272 290 297 305 298 295 299 295 294 292 296 301 307 301 293 289 302 302 290 289 288 288 278 278 277 276 272 276
143 144 151 151 149 163 161 168 166 186 219 238 252 258 260 259 273 295 297 294 293 298 300 299 297 303 312 315 313 312 305 306 308 302 295 293 290 286 284 281 277 269 272
138 143 147 145 160 165 159 164 179 194 217 231 246 267 259 256 270 283 291 306 304 301 296 299 305 316 324 317 319 314 314 324 316 302 302 299 298 299 299 300 297 289 283
142 145 146 151 165 159 168 178 195 201 228 238 248 267 277 282 269 288 305 302 306 310 304 309 325 321 321 321 314 319 332 317 312 308 306 299 297 299 303 297 291 287 283
145 150 151 161 169 172 186 194 206 209 217 226 240 250 264 265 272 284 285 286 299 304 313 323 314 321 315 313 313 319 315 313 310 303 301 302 302 301 297 293 289 287 282
152 153 164 175 179 177 203 200 209 216 217 213 226 242 269 274 281 286 297 298 295 302 330 324 317 318 316 317 318 316 315 314 310 307 308 304 298 295 295 294 291 287 278
157 163 172 172 176 192 196 210 227 232 232 241 254 259 257 272 286 293 296 300 306 322 323 312 303 308 311 316 317 317 316 313 310 309 303 298 300 302 302 300 293 288 285
166 163 163 181 179 185 195 207 215 207 235 245 255 261 266 271 282 287 294 295 316 320 295 292 293 303 305 306 309 309 309 312 310 305 306 302 299 297 303 300 298 295 291
154 144 162 182 184 190 198 205 213 225 236 236 239 246 258 267 274 284 287 311 320 291 277 281 290 293 299 299 301 303 305 307 310 310 307 302 303 308 306 303 301 300 298
150 155 172 171 184 194 196 208 222 227 237 253 266 266 260 269 281 281 277 291 268 273 275 279 284 289 290 293 296 299 301 302 306 305 307 304 317 313 308 305 302 304 302
150 149 168 170 171 192 209 220 227 232 241 244 247 247 240 201 250 254 224 259 261 263 272 274 278 281 287 291 294 297 300 304 307 308 311 317 318 315 310 310 313 311 309
155 154 168 177 193 200 213 215 229 238 243 247 256 258 245 225 257 268 246 257 261 265 272 278 285 285 285 288 293 295 299 301 303 306 308 323 321 320 319 316 315 315 313
146 153 170 202 211 218 230 238 243 245 247 250 257 260 273 278 267 257 250 251 253 257 263 269 273 276 280 286 290 294 297 299 303 308 309 323 321 324 324 322 322 323 322
146 159 171 189 211 231 233 239 246 248 252 253 258 261 259 258 255 253 253 250 251 254 255 258 264 270 272 275 278 284 290 296 299 306 302 317 321 325 328 327 328 328 331
148 165 195 215 224 237 245 253 258 253 254 266 267 262 258 259 258 259 259 255 252 255 257 258 255 258 274 279 281 284 285 287 295 298 298 297 309 319 325 327 332 332 335
152 177 217 252 254 251 248 251 256 258 263 262 262 259 260 259 259 257 260 254 252 255 259 259 261 262 265 269 275 282 282 289 294 294 288 269 283 304 315 319 330 332 341
170 194 232 247 247 247 251 256 259 260 260 259 260 258 258 258 257 259 260 258 259 259 260 264 265 262 269 275 274 278 286 296 301 297 311 275 274 287 293 312 323 329 337